Tracking 17857 objects as of 1-October-2016
HD Live streaming from Space Station
objects crossing your sky now

COSMOS 2251 DEB

Track COSMOS 2251 DEB now!
10-day predictions


NORAD ID: 34473
Int'l Code: 1993-036TS
Perigee: 735.8 km
Apogee: 765.8 km
Inclination: 74.0 °
Period: 99.7 minutes
Semi major axis: 7121 km
RCS: 0.0156 m2 (small)
Launch date: June 16, 1993
Source: Commonwealth of Independent States (former USSR) (CIS)
Launch site: PLESETSK MISSILE AND SPACE COMPLEX (PKMTR)

Note: This is SATELLITE DEBRIS
Your satellite tracking list
Your tracking list is empty





NASA's NSSDC Master Catalog

Two Line Element Set (TLE):
1 34473U 93036TS  16273.53304604 +.00001609 +00000-0 +47230-3 0  9991
2 34473 074.0333 304.0932 0021029 089.8880 060.5708 14.44505207399143
Source of the keplerian elements: AFSPC

N2YO: 921